Regional Weather Roundup
Issued by NWS

Home | Current Version | Previous Version | Graphics & Text | Print | Product List | Glossary On
Versions: 1 2 3 4 5 6 7 8 9 10 11 12 13 14 15 16 17 18 19 20 21 22 23 24 25 26 27 28 29 30 31 32 33 34 35 36 37 38 39 40 41 42 43 44 45 46 47 48 49 50
000
ASUS43 KIND 302209
RWRIN

WEATHER ROUNDUP FOR INDIANA
NATIONAL WEATHER SERVICE INDIANAPOLIS IN
600 PM EDT WED JUL 30 2014

NOTE: "FAIR" INDICATES FEW OR NO CLOUDS BELOW 12,000 FEET WITH NO
SIGNIFICANT WEATHER AND/OR OBSTRUCTIONS TO VISIBILITY.

* - STATION DOES NOT REPORT WEATHER SUCH AS PRECIPITATION OR FOG.

+ - STATION NOT QUALITY CONTROLLED BY THE NATIONAL WEATHER SERVICE.
    USE DATA WITH CAUTION...ESPECIALLY DEWPOINT AND RELATIVE
    HUMIDITY OBSERVATIONS.

INZ001>003-010>013-019-020-302300-
NORTHWEST INDIANA

CITY           SKY/WX    TMP DP  RH WIND       PRES   REMARKS
GARY /AIRPORT/ MOSUNNY   70  63  78 NE9       30.03F
KNOX *+        MOSUNNY   75  58  56 N5        30.00S
LA PORTE +     SUNNY     74  56  53 N8        30.02S
MICHIGAN CITY+ SUNNY     68  57  68 N8        30.03S
MONTICELLO +   MOSUNNY   77  61  58 W12       30.01S
RENSSELAER +   SUNNY     77  59  53 W8        30.01F
VALPARAISO     MOSUNNY   76  59  55 N7        30.01F

$$

LMZ046-743>745-302300-
SOUTHERN LAKE MICHIGAN

STATION/POSITION TIME  TEMP WIND        PRES
                       AIR  DIR/SP/G
                 (UTC) (F)  (DEG/KT/KT) (MB)
BURNS HARBOR     2200   67   40/ 11/ 14 1017.3S
MICHIGAN CITY    2200   64   10/ 11/ 13   N/A

$$

INZ004-005-014>016-021>024-302300-
NORTH CENTRAL INDIANA

CITY           SKY/WX    TMP DP  RH WIND       PRES   REMARKS
ELKHART        SUNNY     75  54  46 NW9       30.02
GOSHEN         SUNNY     77  57  50 NW10      30.00F
LOGANSPORT +   MOSUNNY   77  59  53 W7        30.02S
PERU/GRISSOM   SUNNY     79  62  55 W13       30.01S
ROCHESTER +    PTSUNNY   77  55  47 W8        30.01S
SOUTH BEND     SUNNY     76  55  48 N12       30.02F
WARSAW +       SUNNY     77  57  50 W13       30.01S

$$

INZ006>009-017-018-025>027-302300-
NORTHEAST INDIANA

CITY           SKY/WX    TMP DP  RH WIND       PRES   REMARKS
ANGOLA *+      MOSUNNY   77  55  47 NW13      30.00S
AUBURN +       MOSUNNY   77  54  44 W9        30.00F
FORT WAYNE     MOSUNNY   75  58  55 W10       30.01R
HUNTINGTON +   SUNNY     76  58  54 W9G16     30.00S

$$

INZ028-029-035-036-043>045-051>053-302300-
WEST CENTRAL INDIANA

CITY           SKY/WX    TMP DP  RH WIND       PRES   REMARKS
GREENCASTLE +  MOSUNNY   75  61  60 CALM      30.04F
LAFAYETTE      MOSUNNY   78  59  51 W12       30.01F
TERRE HAUTE    MOSUNNY   80  60  50 W8        30.04S

$$

INZ030>032-037>040-046>048-054>057-064-065-302300-
CENTRAL INDIANA

CITY           SKY/WX    TMP DP  RH WIND       PRES   REMARKS
CP ATTERBURY + PTSUNNY   77  57  50 W6        30.05S
COLUMBUS       PTSUNNY   73  63  68 NE12      30.05R
INDIANAPOLIS   TSTM      69  61  75 N8        30.03S
-EAGLE CREEK   MOSUNNY   71  59  65 VRB3      30.03S THUNDER
KOKOMO *+      MOSUNNY   79  61  53 NW13      30.01S
MARION +       SUNNY     76  56  50 NW10      30.02S
MT COMFORT *+  MOSUNNY   73  64  73 SW15G21   30.04R
SHELBYVILLE    PTSUNNY   72  62  71 S6        30.04F
ZIONSVILLE +   MOSUNNY   79  59  50 W8        30.03F

$$

INZ033-034-041-042-049-050-058-059-302300-
EAST CENTRAL INDIANA

CITY           SKY/WX    TMP DP  RH WIND       PRES   REMARKS
MUNCIE         MOSUNNY   78  58  49 W10       30.02S

$$

INZ060-061-067>069-081>083-085>088-302300-
SOUTHWEST INDIANA

CITY           SKY/WX    TMP DP  RH WIND       PRES   REMARKS
EVANSVILLE     MOSUNNY   81  55  40 W7        30.06S
WASHINGTON +   MOSUNNY   77  60  55 W6        30.04S

$$

INZ062-063-066-070>080-084-089>092-302300-
SOUTH CENTRAL AND SOUTHEAST INDIANA

CITY           SKY/WX    TMP DP  RH WIND       PRES   REMARKS
BEDFORD +      SUNNY     79  54  41 SW8       30.05S
BLOOMINGTON    CLOUDY    75  62  64 CALM      30.05F
NORTH VERNON + PTSUNNY   77  57  50 W12       30.06S
SEYMOUR +      MOSUNNY   77  43  29 W8        30.04

$$




USA.gov is the U.S. government's official web portal to all federal, state and local government web resources and services.